CZ-6A R/B, 58200

Orbit data source: Space-Track

CZ-6A R/B, 58200 is space debris in SSO originally from a launch on Tue, 31 Oct 2023 UTC launched from the Taiyaun Space Center, China (TSC). Debris objects in space refer to the collection of defunct objects orbiting the Earth. Examples of debris include non-operational satellites, rocket bodies, and fragments generated from explosions, collisions, or faulty payload assembly.

Loading next visibility...
Identifier
58200, 2023-168B
Orbit
SSO
Country
Flag of CNCN / PRC
Related business
Manufacturer
SAST
Mission
Spacecraft
Bus & Motor
CZ-6A STAGE 2, YF-115
Mass
~6,000 kg wet, ~6,000 kg dry
Launch date (UTC)
2023-10-31 (2 years ago)
Launch vehicle
Unknown
Launch site
Taiyaun Space Center, China (TSC)
Object type
Payload
Rocket body
Debris
Shape & HBR
Unknown shape, 5.5 m
Radar Cross Section
Large (>1 m²)

Expand to show TLE details & history
Last TLE update: 12 hours ago

TLE from 12 hours ago
0 CZ-6A R/B
1 58200U 23168B   26095.14985066  .00005555  00000-0  27716-3 0  9992
2 58200  97.7488 131.6013 0059674 246.5283 112.9670 15.16383415133770
Epoch: 2026-04-05T03:35Z
TLE epoch observation values (Epoch: 2026-04-05T03:35:47.097Z)
Latitude
0.00002°
Longitude
-115.80435°
Altitude
536.123 km
Speed
7.586 km/s
True Right ascension
08h 46m 24s
True Declination
0° 00' 00"
Sunlit
Object was in full shadow at epoch
Visualization orbit readout
Latitude
Unknown
Longitude
Unknown
Altitude
Unknown
Speed
Unknown
Apparent Right ascension
Unknown
Apparent Declination
Unknown
Sunlit
N/A
Visualization observer readout
Local Sidereal Time
21:14:51
Azimuth
Unknown
Elevation
Unknown
Doppler factor
Unknown
Orbital elements
Apogee altitude
554.894 km
Perigee altitude
472.641 km
Semi-major axis
6,891.904 km
Eccentricity
0.00597
Inclination
97.7488°
RAAN
131.6013°
Arg. of periapsis
246.5283°
True anomaly
113.59477°
Mean anomaly
112.967°
Eccentric anomaly
113.28107°
Mean motion
3.79345 °/min
Orbital period
94.9 mins
BSTAR
0.00027716
Loading maneuver chart data...
Computing Atmospheric mass density...
Loading historical data...
Loading historical data...
Loading historical data...
Loading historical data...
Loading historical data...
Loading historical data...
Loading historical data...
Other satellites on launch #168 in the year 2023 (2023-10-31 UTC)

Documentation

Showing up to 5 results
|